Dewpoint
35 36 36 36 37 38 38 39 39 41 42 44 45 47 48 50 53 55 56 56 55 53 53 53 51 51 50 50 50 51 51 47 40 37 36 34 32 32 30 29 31 31 31
35 36 36 36 36 37 37 38 39 40 42 43 44 46 47 47 50 53 51 51 51 49 48 48 48 48 47 47 48 48 47 46 42 36 32 32 32 31 30 30 29 28 29
35 36 36 36 36 36 36 37 38 40 41 42 42 43 44 45 46 47 47 46 45 45 46 46 46 47 45 44 44 43 43 42 40 36 32 33 32 30 29 29 29 30 31
35 35 36 35 35 36 36 37 38 39 39 40 41 41 42 43 43 44 43 42 41 40 39 39 39 40 40 39 39 40 39 38 36 33 31 30 29 28 29 28 27 28 28
35 34 34 35 35 35 36 36 37 37 38 39 39 39 40 40 41 41 40 40 38 36 34 33 34 33 35 36 35 37 37 35 32 30 29 28 27 26 26 26 26 24 24
33 34 34 35 35 35 35 35 36 36 37 37 38 37 37 38 39 39 39 38 36 35 34 34 33 32 34 35 35 36 35 32 29 29 28 26 26 27 27 25 23 25 24
33 32 32 31 32 34 35 34 35 35 36 36 36 36 36 37 38 38 37 36 35 34 32 31 30 30 30 30 32 32 32 34 34 29 26 25 26 27 26 22 23 23 23
32 33 33 32 30 31 33 34 34 35 34 35 35 35 35 35 37 36 35 34 33 32 31 31 30 29 29 29 29 29 29 30 30 28 28 27 28 28 27 27 27 22 20
30 30 30 29 30 30 30 30 30 31 32 32 33 33 33 33 34 34 33 31 30 29 30 30 29 29 32 31 28 27 27 28 31 31 31 31 30 29 28 26 20 18 15
29 29 29 29 29 29 29 29 30 29 30 30 31 31 31 31 33 34 32 30 29 29 29 30 30 30 32 31 27 25 22 25 24 23 25 26 26 27 27 27 26 27 13
28 29 28 28 28 28 28 29 29 29 29 27 28 28 29 29 30 32 33 30 29 29 29 29 29 31 31 31 30 26 25 26 26 22 21 22 22 21 21 23 24 24 17
25 25 24 24 27 28 24 25 25 26 25 25 26 26 27 28 31 31 31 32 32 29 29 28 29 31 30 30 28 30 30 26 21 18 15 15 15 13 13 14 17 18 18
21 20 20 21 24 26 23 22 23 23 23 24 26 26 27 27 28 32 32 32 33 29 29 30 31 31 30 30 30 30 23 20 16 13 13 15 13 12 10 10 13 12 11
22 21 21 21 21 21 26 27 23 21 22 24 24 23 23 24 25 25 28 27 30 29 31 30 30 29 29 27 26 27 22 22 19 15 14 12 11 10 11 10 20 24 10
22 22 23 24 23 22 24 24 26 25 26 21 21 23 23 23 26 29 29 26 23 27 21 18 19 26 27 27 27 27 26 27 26 22 13 11 9 9 10 10 10 10 12
23 24 25 25 25 25 24 22 28 30 31 33 33 28 24 29 32 33 32 31 31 31 18 19 23 25 26 26 26 27 27 25 25 21 21 17 16 18 14 9 10 10 10
25 25 26 25 25 25 24 23 23 24 31 30 30 31 31 28 31 31 32 32 31 31 14 19 19 23 24 25 26 26 26 26 26 25 26 21 19 15 15 8 8 10 10
25 24 27 26 26 26 25 25 24 24 23 21 28 29 30 30 30 29 30 30 29 30 27 22 25 20 18 20 22 24 25 21 25 25 25 21 20 18 13 16 16 12 12
25 26 28 27 27 27 26 25 26 25 25 24 19 27 29 30 31 30 30 28 27 27 27 27 26 25 23 22 22 22 22 23 24 24 25 23 21 21 20 19 19 17 14
25 23 25 28 27 27 27 27 27 27 26 26 26 26 23 25 28 29 28 28 28 26 26 26 25 25 25 23 23 23 22 22 24 24 23 23 21 21 20 19 19 17 18
29 28 27 26 26 28 28 27 27 27 27 27 27 26 28 27 26 27 27 28 28 27 27 27 26 26 26 25 24 23 23 22 23 24 23 23 22 21 20 19 19 19 18
29 30 29 28 29 29 29 29 28 28 28 28 27 26 32 29 26 26 27 28 29 28 28 28 28 28 28 27 26 24 24 23 23 23 23 24 24 22 21 20 20 19 19
30 29 29 28 28 27 28 29 29 28 28 28 26 26 27 29 28 27 27 27 28 29 29 28 28 28 28 28 28 27 25 24 24 24 23 23 23 24 23 21 20 20 19
29 29 29 29 28 28 27 27 28 27 27 26 26 26 26 26 26 25 26 25 23 23 23 26 29 30 30 28 30 29 28 26 25 24 23 24 23 23 24 22 21 21 20
28 29 29 29 28 28 27 27 26 26 26 25 24 23 26 27 26 26 24 24 24 22 22 20 22 27 30 30 30 31 29 25 25 25 26 26 25 24 23 22 22 22 21
27 27 28 27 27 27 27 26 27 26 27 28 28 28 28 28 28 28 29 28 28 29 29 28 28 28 29 29 30 30 31 29 28 28 28 27 26 25 24 23 23 22 22
Lifted_Index
10 10 10 10 11 11 11 12 12 11 8 6 4 4 3 3 3 2 2 2 2 3 3 3 3 3 2 2 2 2 2 2 2 2 3 3 4 7 11 15 17 16 16
11 10 10 10 11 12 12 12 12 11 9 7 5 4 3 3 3 3 2 2 2 3 3 3 3 2 2 2 2 2 2 2 2 2 2 3 4 7 12 15 16 16 15
11 11 11 11 11 12 12 12 12 12 11 9 6 4 3 3 3 3 2 2 2 2 2 2 2 2 2 2 2 2 2 2 2 2 2 2 4 8 12 14 14 15 15
11 11 11 11 11 12 12 12 12 12 11 10 8 5 3 3 2 2 2 2 2 2 2 2 2 2 2 2 3 3 3 3 3 2 3 4 7 10 12 13 13 14 14
11 11 11 11 11 11 11 12 11 11 11 10 8 6 4 3 3 3 2 2 2 2 2 3 3 3 3 3 3 3 3 3 3 4 5 7 9 11 12 12 13 13 13
11 11 11 11 11 11 11 11 10 10 9 8 7 6 5 5 4 4 4 4 3 3 4 4 4 4 4 4 4 4 4 5 5 7 8 10 10 11 12 12 12 12 12
12 12 12 12 11 11 10 10 10 9 8 8 7 6 6 5 5 5 5 5 4 4 5 5 5 5 5 5 5 6 7 8 9 10 11 11 11 11 12 12 12 12 12
13 13 13 12 12 11 11 10 9 9 8 8 7 7 6 6 6 6 6 6 5 6 6 6 6 6 7 7 7 8 10 11 11 12 12 12 12 12 12 12 12 12 12
14 14 15 14 12 11 11 10 10 9 8 8 8 7 7 7 7 7 6 6 6 7 7 7 8 8 9 10 11 11 12 12 12 12 12 13 13 13 13 13 12 12 12
14 15 16 16 14 12 11 10 10 9 9 8 8 8 8 8 8 8 7 7 7 7 8 9 10 11 13 13 13 13 12 12 12 12 13 13 13 13 13 13 13 12 12
15 15 16 16 16 14 13 11 10 10 9 9 9 9 9 9 9 8 8 8 8 8 8 9 12 14 14 15 14 14 13 13 12 12 12 12 13 13 13 14 14 13 13
15 15 16 16 16 16 14 13 11 10 9 9 9 9 9 9 9 9 8 8 8 8 9 10 13 14 15 15 15 14 14 14 13 12 12 12 12 13 13 14 14 14 15
15 15 15 16 16 16 15 14 13 12 11 10 9 9 9 8 8 8 8 9 9 9 11 12 14 14 15 15 15 14 14 14 13 13 12 12 13 13 14 14 14 14 14
14 14 15 15 15 15 15 15 14 14 13 12 11 10 10 9 9 9 9 9 9 10 12 13 14 14 14 14 14 14 14 14 13 13 12 13 13 13 13 14 14 13 13
13 13 13 14 14 15 15 15 15 15 15 14 14 13 13 12 11 11 11 11 11 11 12 13 13 13 13 13 13 13 13 13 13 13 12 13 13 13 13 13 13 13 12
12 12 12 12 12 13 14 14 15 16 16 16 16 16 15 15 15 14 14 14 14 13 12 12 12 12 12 12 12 12 12 12 12 12 12 12 12 12 13 13 13 12 12
11 11 11 10 10 11 11 12 13 14 15 15 16 16 16 17 16 16 16 15 15 13 12 11 11 11 12 12 12 12 12 12 13 12 12 12 12 12 12 12 12 12 12
9 9 9 9 9 9 10 10 10 11 12 13 14 15 16 16 17 17 16 15 14 13 12 11 11 11 12 12 12 12 12 12 12 12 12 12 12 12 12 12 12 12 12
8 8 9 9 9 9 9 9 9 9 10 10 11 13 14 15 15 16 16 15 13 13 13 12 12 13 13 13 13 13 13 12 12 12 12 12 12 12 12 12 12 12 12
8 8 8 8 8 8 8 8 8 8 9 9 9 10 12 12 13 13 14 13 13 13 13 14 14 14 14 14 13 13 13 13 12 12 12 12 12 12 12 12 12 12 12
8 8 8 8 8 8 8 8 8 8 8 8 9 9 10 10 10 11 11 12 12 12 13 14 14 15 15 14 14 14 14 13 13 12 12 12 12 12 12 12 13 13 13
8 8 8 8 8 8 8 8 8 8 8 8 8 9 9 9 9 9 10 11 11 12 13 13 14 14 15 15 14 14 14 14 13 13 12 12 12 12 12 13 13 13 13
7 7 7 8 8 9 9 9 9 9 9 9 9 9 9 8 8 8 9 10 12 12 13 13 13 14 14 15 15 14 14 14 13 13 12 12 12 12 11 11 12 13 13
7 7 7 7 8 9 9 9 9 10 10 10 10 10 10 9 9 9 10 11 12 13 13 14 14 14 14 15 15 15 14 14 13 13 12 12 11 10 9 9 10 12 12
7 7 7 7 8 9 10 10 10 10 11 11 11 11 11 11 11 11 12 12 13 13 14 14 14 14 15 15 15 15 15 14 14 14 13 12 11 9 8 8 9 10 11
8 7 7 8 9 10 10 10 11 11 11 12 12 12 12 12 13 13 13 13 13 13 14 14 15 15 15 15 16 16 16 15 15 14 14 13 11 10 9 8 9 9 10